{"data":{"norad_id":51855,"intl_designator":"2022-022D","name":"STARLINK-3545","alt_names":[],"object_type":"PAYLOAD","status":"ACTIVE","operator":null,"country":"US","launch_date":"2022-03-03","launch_site_code":"AFETR","launch_vehicle":null,"mission":null,"orbit_class":"UNKNOWN","rcs_meters":null,"size_class":null,"mass_kg":null,"dimensions":null,"purposes":["comms"],"wikipedia_slug":null,"has_3d_model":false,"image_url":null,"decayed_at":null,"tle_current":{"epoch":"2026-05-25T00:14:51.692064Z","epoch_age_seconds":74945,"freshness":"FRESH","line1":"1 51855U 22022D   26145.01032051  .00005839  00000+0  38421-3 0  9997","line2":"2 51855  53.2136  36.4221 0001651  74.8797 285.2378 15.08880419234490","mean_motion":15.08880419,"eccentricity":0.0001651,"inclination_deg":53.2136,"raan_deg":36.4221,"arg_perigee_deg":74.8797,"mean_anomaly_deg":285.2378,"bstar":0.00038421,"rev_number":23449,"period_min":95.43499815276,"perigee_km":538.47772535341,"apogee_km":540.76196866429,"semimajor_km":6917.7568470088,"source":"CELESTRAK","updated_at":"2026-05-25T13:38:16.959887Z"}}}